Casper, WY

4:27 PM MDT on March 26, 2017 (GMT -0600)
Natrona County International

Weather History for KCPR - May, 2013

Change the Weather History Date:

Monday, May 13, 2013

  Actual Average Record
Temperature  
Mean Temperature 70 °F 51 °F  
Max Temperature 88 °F 66 °F 88 °F (2013)
Min Temperature 52 °F 36 °F 22 °F (1983)
Degree Days  
Heating Degree Days 0 14  
Month to date heating degree days 193 204  
Since 1 July heating degree days 7056 7246  
Cooling Degree Days 5 0  
Month to date cooling degree days 5 0  
Year to date cooling degree days 5 0  
Growing Degree Days 20 (Base 50)    
Moisture  
Dew Point 33 °F    
Average Humidity 31    
Maximum Humidity 50    
Minimum Humidity 12    
Precipitation  
Precipitation 0.00 in 0.06 in 0.99 in (1942)
Month to date precipitation 0.16 0.83  
Year to date precipitation 4.32 4.02  
Snow  
Snow 0.00 in 0.10 in - ()
Month to date snowfall 3.5 2.1  
Since 1 July snowfall 85.7 74.0  
Snow Depth 0.00 in    
Sea Level Pressure  
Sea Level Pressure 29.90 in    
Wind  
Wind Speed 10 mph (SW)    
Max Wind Speed 18 mph    
Max Gust Speed 28 mph    
Visibility 10 miles    
Events      
T = Trace of Precipitation, MM = Missing Value Source: NWS Daily Summary

Daily Weather History Graph

Daily Weather History Graph

Search for Another Location

Airport or City:

Trip Planner

Search our weather history database for the weather conditions in past years. The results will help you decide how hot, cold, wet, or windy it might be!

Date:

Astronomy

May. 13, 2013 Rise Set
Actual Time 5:44 AM MDT 8:20 PM MDT
Civil Twilight 5:12 AM MDT 8:52 PM MDT
Nautical Twilight 4:31 AM MDT 9:33 PM MDT
Astronomical Twilight 3:45 AM MDT 10:19 PM MDT
Moon 8:32 AM MDT (5/13) 11:31 PM MDT (5/13)
Length of Visible Light 15h 40m
Length of Day
14h 35m
Waxing Crescent, 12% of the Moon is Illuminated
May 13
Waxing Crescent
May 17
First Quarter
May 24
Full
May 31
Last Quarter
Jun 8
New

Hourly Weather History & Observations

Time (MDT) Temp. Dew Point Humidity Pressure Visibility Wind Dir Wind Speed Gust Speed Precip Events Conditions
12:53 AM 57.0 °F 34.0 °F 42% 29.95 in 10.0 mi WSW 8.1 mph - N/A   Clear
1:53 AM 55.9 °F 34.0 °F 44% 29.94 in 10.0 mi WSW 9.2 mph - N/A   Clear
2:53 AM 55.0 °F 32.0 °F 42% 29.94 in 10.0 mi WSW 12.7 mph - N/A   Clear
3:53 AM 54.0 °F 33.1 °F 45% 29.94 in 10.0 mi WSW 11.5 mph - N/A   Clear
4:53 AM 52.0 °F 33.1 °F 49% 29.95 in 10.0 mi WSW 11.5 mph - N/A   Clear
5:53 AM 54.0 °F 33.1 °F 45% 29.96 in 10.0 mi WSW 11.5 mph - N/A   Clear
6:53 AM 57.0 °F 34.0 °F 42% 29.98 in 10.0 mi West 9.2 mph - N/A   Clear
7:53 AM 64.0 °F 36.0 °F 35% 29.99 in 10.0 mi SW 9.2 mph - N/A   Clear
8:53 AM 71.1 °F 34.0 °F 26% 29.99 in 10.0 mi SW 15.0 mph - N/A   Clear
9:53 AM 75.0 °F 36.0 °F 24% 29.97 in 10.0 mi SW 12.7 mph 20.7 mph N/A   Clear
10:53 AM 79.0 °F 35.1 °F 20% 29.97 in 10.0 mi SSW 13.8 mph 27.6 mph N/A   Clear
11:53 AM 81.0 °F 34.0 °F 18% 29.95 in 10.0 mi SSW 8.1 mph - N/A   Scattered Clouds
12:53 PM 84.0 °F 30.9 °F 15% 29.92 in 10.0 mi Variable 6.9 mph 17.3 mph N/A   Scattered Clouds
2:53 PM 84.0 °F 30.9 °F 15% 29.88 in 10.0 mi SSW 12.7 mph 17.3 mph N/A   Partly Cloudy
3:53 PM 84.9 °F 30.0 °F 14% 29.85 in 10.0 mi WSW 6.9 mph 21.9 mph N/A   Partly Cloudy
4:53 PM 84.9 °F 28.9 °F 13% 29.83 in 10.0 mi West 16.1 mph 20.7 mph N/A   Clear
5:53 PM 84.2 °F 26.6 °F 12% 30.00 in 10.0 mi WNW 10.4 mph - N/A   Clear
6:53 PM 82.9 °F 30.9 °F 15% 29.78 in 10.0 mi SSW 6.9 mph - N/A   Clear
7:53 PM 75.2 °F 37.4 °F 25% 29.97 in 10.0 mi West 4.6 mph - N/A   Clear
8:53 PM 64.9 °F 36.0 °F 34% 29.79 in 10.0 mi WSW 6.9 mph - N/A   Clear
9:53 PM 63.0 °F 33.1 °F 33% 29.78 in 10.0 mi SW 9.2 mph - N/A   Clear
10:53 PM 59.0 °F 32.0 °F 36% 29.78 in 10.0 mi SW 5.8 mph - N/A   Clear
11:53 PM 62.1 °F 30.0 °F 30% 29.75 in 10.0 mi SW 13.8 mph - N/A   Clear